Tabellarische Ansicht des 8.2.2019


Die einzelnen Werte des Tages

Uhrzeit Temperatur Luftdruck Luftfeuchte Wind Hi-Wind Taupunkt THW Index Wind Chill Heat Index Solar- strahlung Regen

00:00

7.2 C

1007.9 hpa

76 %

20.9 km/h aus 117

32.2 km/h aus S

3.2 C

3.2 C

3.4 C

6.9 C

0 W/m

0.00 mm

00:05

7.1 C

1007.9 hpa

76 %

20.9 km/h aus 116

35.4 km/h aus SSW

3.2 C

3.1 C

3.3 C

6.9 C

0 W/m

0.00 mm

00:10

7.1 C

1007.9 hpa

76 %

20.9 km/h aus 114

40.2 km/h aus S

3.2 C

3.1 C

3.3 C

6.9 C

0 W/m

0.00 mm

00:15

7.1 C

1008.1 hpa

77 %

22.5 km/h aus 113

35.4 km/h aus SSW

3.3 C

2.9 C

3.1 C

6.9 C

0 W/m

0.00 mm

00:20

7.1 C

1008.1 hpa

77 %

24.1 km/h aus 114

38.6 km/h aus SSW

3.3 C

2.7 C

2.9 C

6.9 C

0 W/m

0.00 mm

00:25

7.1 C

1008.1 hpa

77 %

19.3 km/h aus 117

33.8 km/h aus SSW

3.3 C

3.3 C

3.4 C

6.9 C

0 W/m

0.00 mm

00:30

7.1 C

1008.3 hpa

77 %

19.3 km/h aus 116

29.0 km/h aus SSW

3.3 C

3.3 C

3.4 C

6.9 C

0 W/m

0.00 mm

00:35

7.1 C

1008.3 hpa

77 %

22.5 km/h aus 117

41.8 km/h aus S

3.3 C

2.9 C

3.1 C

6.9 C

0 W/m

0.00 mm

00:40

7.1 C

1008.3 hpa

77 %

20.9 km/h aus 117

30.6 km/h aus SSW

3.3 C

3.1 C

3.2 C

6.9 C

0 W/m

0.00 mm

00:45

7.0 C

1008.4 hpa

77 %

20.9 km/h aus 115

32.2 km/h aus SW

3.2 C

3.0 C

3.2 C

6.8 C

0 W/m

0.00 mm

00:50

7.0 C

1008.4 hpa

77 %

17.7 km/h aus 112

32.2 km/h aus S

3.2 C

3.4 C

3.6 C

6.8 C

0 W/m

0.00 mm

00:55

7.0 C

1008.4 hpa

78 %

17.7 km/h aus 117

29.0 km/h aus S

3.4 C

3.4 C

3.6 C

6.8 C

0 W/m

0.00 mm

01:00

6.9 C

1008.3 hpa

78 %

17.7 km/h aus 117

35.4 km/h aus SSW

3.4 C

3.4 C

3.6 C

6.8 C

0 W/m

0.00 mm

01:05

6.9 C

1008.3 hpa

78 %

24.1 km/h aus 116

33.8 km/h aus SW

3.4 C

2.6 C

2.8 C

6.8 C

0 W/m

0.00 mm

01:10

7.0 C

1008.3 hpa

78 %

19.3 km/h aus 116

30.6 km/h aus SSW

3.4 C

3.2 C

3.4 C

6.8 C

0 W/m

0.00 mm

01:15

6.9 C

1008.4 hpa

78 %

17.7 km/h aus 114

33.8 km/h aus SW

3.4 C

3.4 C

3.6 C

6.8 C

0 W/m

0.00 mm

01:20

6.9 C

1008.4 hpa

78 %

19.3 km/h aus 114

32.2 km/h aus SW

3.4 C

3.2 C

3.3 C

6.8 C

0 W/m

0.00 mm

01:25

6.9 C

1008.4 hpa

78 %

19.3 km/h aus 117

33.8 km/h aus SW

3.4 C

3.2 C

3.3 C

6.8 C

0 W/m

0.00 mm

01:30

6.9 C

1008.6 hpa

78 %

17.7 km/h aus 117

30.6 km/h aus S

3.4 C

3.4 C

3.6 C

6.8 C

0 W/m

0.00 mm

01:35

6.9 C

1008.6 hpa

78 %

19.3 km/h aus 117

33.8 km/h aus SSW

3.4 C

3.2 C

3.3 C

6.8 C

0 W/m

0.00 mm

01:40

6.9 C

1008.6 hpa

78 %

19.3 km/h aus 110

33.8 km/h aus SW

3.4 C

3.2 C

3.3 C

6.8 C

0 W/m

0.00 mm

01:45

6.9 C

1008.8 hpa

78 %

20.9 km/h aus 114

41.8 km/h aus S

3.4 C

2.9 C

3.1 C

6.8 C

0 W/m

0.00 mm

01:50

6.9 C

1008.8 hpa

78 %

19.3 km/h aus 115

33.8 km/h aus SW

3.4 C

3.2 C

3.3 C

6.8 C

0 W/m

0.00 mm

01:55

6.9 C

1008.8 hpa

78 %

17.7 km/h aus 117

29.0 km/h aus SSW

3.4 C

3.4 C

3.6 C

6.8 C

0 W/m

0.00 mm

02:00

6.9 C

1008.8 hpa

78 %

14.5 km/h aus 117

24.1 km/h aus S

3.4 C

3.9 C

4.1 C

6.8 C

0 W/m

0.00 mm

02:05

6.9 C

1008.8 hpa

78 %

17.7 km/h aus 117

27.4 km/h aus SSW

3.3 C

3.3 C

3.5 C

6.7 C

0 W/m

0.00 mm

02:10

6.8 C

1008.8 hpa

78 %

17.7 km/h aus 115

29.0 km/h aus S

3.3 C

3.3 C

3.4 C

6.7 C

0 W/m

0.00 mm

02:15

6.8 C

1008.8 hpa

78 %

16.1 km/h aus 113

25.7 km/h aus SSE

3.3 C

3.6 C

3.7 C

6.7 C

0 W/m

0.00 mm

02:20

6.8 C

1008.8 hpa

78 %

14.5 km/h aus 115

25.7 km/h aus SSW

3.3 C

3.8 C

4.0 C

6.7 C

0 W/m

0.00 mm

02:25

6.8 C

1008.8 hpa

79 %

17.7 km/h aus 116

27.4 km/h aus SSW

3.4 C

3.2 C

3.3 C

6.7 C

0 W/m

0.00 mm

02:30

6.8 C

1008.8 hpa

79 %

16.1 km/h aus 117

35.4 km/h aus SSW

3.4 C

3.5 C

3.6 C

6.7 C

0 W/m

0.00 mm

02:35

6.7 C

1008.8 hpa

79 %

16.1 km/h aus 116

22.5 km/h aus SSW

3.3 C

3.4 C

3.6 C

6.6 C

0 W/m

0.00 mm

02:40

6.7 C

1008.8 hpa

79 %

17.7 km/h aus 117

30.6 km/h aus SSW

3.3 C

3.2 C

3.3 C

6.6 C

0 W/m

0.00 mm

02:45

6.7 C

1008.8 hpa

79 %

16.1 km/h aus 115

27.4 km/h aus SSW

3.3 C

3.4 C

3.6 C

6.6 C

0 W/m

0.00 mm

02:50

6.7 C

1008.8 hpa

79 %

16.1 km/h aus 115

25.7 km/h aus S

3.3 C

3.4 C

3.5 C

6.6 C

0 W/m

0.00 mm

02:55

6.7 C

1008.8 hpa

79 %

17.7 km/h aus 117

32.2 km/h aus SSW

3.3 C

3.1 C

3.2 C

6.6 C

0 W/m

0.00 mm

03:00

6.7 C

1008.9 hpa

79 %

17.7 km/h aus 116

29.0 km/h aus SSW

3.3 C

3.1 C

3.2 C

6.6 C

0 W/m

0.00 mm

03:05

6.7 C

1008.9 hpa

79 %

17.7 km/h aus 115

30.6 km/h aus SSW

3.3 C

3.1 C

3.2 C

6.6 C

0 W/m

0.00 mm

03:10

6.7 C

1008.9 hpa

79 %

19.3 km/h aus 117

32.2 km/h aus SSW

3.3 C

2.9 C

3.0 C

6.6 C

0 W/m

0.00 mm

03:15

6.7 C

1008.9 hpa

79 %

19.3 km/h aus 113

27.4 km/h aus SW

3.3 C

2.9 C

3.0 C

6.6 C

0 W/m

0.00 mm

03:20

6.7 C

1008.9 hpa

79 %

17.7 km/h aus 114

29.0 km/h aus SSW

3.3 C

3.2 C

3.3 C

6.6 C

0 W/m

0.00 mm

03:25

6.7 C

1008.9 hpa

79 %

17.7 km/h aus 117

32.2 km/h aus SSW

3.3 C

3.2 C

3.3 C

6.6 C

0 W/m

0.00 mm

03:30

6.7 C

1009.2 hpa

79 %

19.3 km/h aus 116

29.0 km/h aus SSW

3.3 C

2.9 C

3.1 C

6.6 C

0 W/m

0.00 mm

03:35

6.7 C

1009.2 hpa

79 %

20.9 km/h aus 115

32.2 km/h aus S

3.3 C

2.7 C

2.8 C

6.6 C

0 W/m

0.00 mm

03:40

6.7 C

1009.2 hpa

79 %

20.9 km/h aus 116

38.6 km/h aus SSW

3.3 C

2.7 C

2.8 C

6.6 C

0 W/m

0.00 mm

03:45

6.7 C

1009.3 hpa

79 %

19.3 km/h aus 113

37.0 km/h aus S

3.3 C

2.9 C

3.1 C

6.6 C

0 W/m

0.00 mm

03:50

6.7 C

1009.3 hpa

79 %

20.9 km/h aus 117

32.2 km/h aus S

3.3 C

2.7 C

2.8 C

6.6 C

0 W/m

0.00 mm

03:55

6.7 C

1009.3 hpa

79 %

16.1 km/h aus 116

25.7 km/h aus SSW

3.3 C

3.4 C

3.6 C

6.6 C

0 W/m

0.00 mm

04:00

6.7 C

1009.2 hpa

78 %

14.5 km/h aus 116

25.7 km/h aus S

3.1 C

3.6 C

3.8 C

6.5 C

0 W/m

0.00 mm

04:05

6.6 C

1009.2 hpa

78 %

19.3 km/h aus 116

30.6 km/h aus S

3.0 C

2.7 C

2.9 C

6.4 C

0 W/m

0.00 mm

04:10

6.6 C

1009.2 hpa

78 %

16.1 km/h aus 117

27.4 km/h aus SSW

3.0 C

3.2 C

3.4 C

6.4 C

0 W/m

0.00 mm

04:15

6.5 C

1009.2 hpa

78 %

14.5 km/h aus 114

22.5 km/h aus SSW

2.9 C

3.4 C

3.6 C

6.3 C

0 W/m

0.00 mm

04:20

6.5 C

1009.2 hpa

79 %

14.5 km/h aus 115

27.4 km/h aus S

3.1 C

3.4 C

3.6 C

6.3 C

0 W/m

0.00 mm

04:25

6.4 C

1009.2 hpa

79 %

17.7 km/h aus 116

27.4 km/h aus S

3.1 C

2.8 C

3.0 C

6.3 C

0 W/m

0.00 mm

04:30

6.4 C

1009.2 hpa

78 %

14.5 km/h aus 117

19.3 km/h aus S

2.8 C

3.3 C

3.4 C

6.2 C

0 W/m

0.00 mm

04:35

6.4 C

1009.2 hpa

78 %

17.7 km/h aus 117

27.4 km/h aus SSW

2.9 C

2.8 C

3.0 C

6.3 C

0 W/m

0.00 mm

04:40

6.4 C

1009.2 hpa

78 %

14.5 km/h aus 117

24.1 km/h aus SSE

2.9 C

3.3 C

3.5 C

6.3 C

0 W/m

0.00 mm

04:45

6.4 C

1009.3 hpa

78 %

16.1 km/h aus 114

29.0 km/h aus SW

2.9 C

3.1 C

3.2 C

6.3 C

0 W/m

0.00 mm

04:50

6.4 C

1009.3 hpa

78 %

20.9 km/h aus 114

33.8 km/h aus S

2.9 C

2.4 C

2.6 C

6.3 C

0 W/m

0.00 mm

04:55

6.5 C

1009.3 hpa

78 %

16.1 km/h aus 118

32.2 km/h aus SSW

2.9 C

3.1 C

3.3 C

6.3 C

0 W/m

0.00 mm

05:00

6.5 C

1009.3 hpa

78 %

19.3 km/h aus 117

35.4 km/h aus SSW

2.9 C

2.7 C

2.8 C

6.3 C

0 W/m

0.00 mm

05:05

6.6 C

1009.3 hpa

78 %

16.1 km/h aus 117

25.7 km/h aus SSW

3.0 C

3.2 C

3.4 C

6.4 C

0 W/m

0.00 mm

05:10

6.6 C

1009.3 hpa

77 %

12.9 km/h aus 117

22.5 km/h aus SW

2.8 C

3.8 C

4.0 C

6.4 C

0 W/m

0.00 mm

05:15

6.5 C

1009.2 hpa

77 %

17.7 km/h aus 112

32.2 km/h aus SSW

2.8 C

2.9 C

3.1 C

6.3 C

0 W/m

0.00 mm

05:20

6.5 C

1009.2 hpa

77 %

20.9 km/h aus 114

29.0 km/h aus S

2.8 C

2.4 C

2.6 C

6.3 C

0 W/m

0.00 mm

05:25

6.4 C

1009.2 hpa

78 %

17.7 km/h aus 115

27.4 km/h aus S

2.9 C

2.8 C

3.0 C

6.3 C

0 W/m

0.00 mm

05:30

6.4 C

1009.1 hpa

78 %

12.9 km/h aus 117

25.7 km/h aus S

2.9 C

3.7 C

3.8 C

6.3 C

0 W/m

0.00 mm

05:35

6.4 C

1009.1 hpa

78 %

16.1 km/h aus 116

24.1 km/h aus SSE

2.9 C

3.1 C

3.2 C

6.3 C

0 W/m

0.00 mm

05:40

6.4 C

1009.1 hpa

78 %

19.3 km/h aus 115

27.4 km/h aus S

2.9 C

2.6 C

2.8 C

6.3 C

0 W/m

0.00 mm

05:45

6.3 C

1009.1 hpa

78 %

16.1 km/h aus 114

30.6 km/h aus SSE

2.8 C

2.9 C

3.1 C

6.2 C

0 W/m

0.00 mm

05:50

6.3 C

1009.1 hpa

79 %

12.9 km/h aus 115

20.9 km/h aus S

3.0 C

3.6 C

3.7 C

6.2 C

0 W/m

0.00 mm

05:55

6.3 C

1009.1 hpa

79 %

11.3 km/h aus 117

17.7 km/h aus WSW

2.9 C

3.8 C

4.0 C

6.1 C

0 W/m

0.00 mm

06:00

6.2 C

1009.0 hpa

79 %

11.3 km/h aus 117

19.3 km/h aus SSW

2.8 C

3.7 C

3.9 C

6.1 C

0 W/m

0.00 mm

06:05

6.2 C

1009.0 hpa

80 %

14.5 km/h aus 117

25.7 km/h aus SSW

3.0 C

3.1 C

3.2 C

6.1 C

0 W/m

0.00 mm

06:10

6.2 C

1009.0 hpa

80 %

16.1 km/h aus 117

24.1 km/h aus S

3.0 C

2.8 C

2.9 C

6.1 C

0 W/m

0.00 mm

06:15

6.2 C

1008.9 hpa

80 %

14.5 km/h aus 113

25.7 km/h aus S

3.0 C

3.0 C

3.2 C

6.0 C

0 W/m

0.00 mm

06:20

6.2 C

1008.9 hpa

81 %

19.3 km/h aus 108

29.0 km/h aus SSE

3.1 C

2.3 C

2.4 C

6.0 C

0 W/m

0.00 mm

06:25

6.2 C

1008.9 hpa

81 %

19.3 km/h aus 115

37.0 km/h aus S

3.2 C

2.4 C

2.5 C

6.1 C

0 W/m

0.00 mm

06:30

6.2 C

1008.9 hpa

81 %

17.7 km/h aus 117

25.7 km/h aus S

3.2 C

2.6 C

2.7 C

6.1 C

0 W/m

0.00 mm

06:35

6.2 C

1008.9 hpa

82 %

22.5 km/h aus 113

33.8 km/h aus SSE

3.4 C

2.0 C

2.1 C

6.1 C

0 W/m

0.00 mm

06:40

6.2 C

1008.9 hpa

82 %

22.5 km/h aus 116

33.8 km/h aus S

3.3 C

1.9 C

2.1 C

6.1 C

0 W/m

0.00 mm

06:45

6.2 C

1008.8 hpa

82 %

19.3 km/h aus 113

30.6 km/h aus S

3.3 C

2.3 C

2.4 C

6.1 C

0 W/m

0.00 mm

06:50

6.2 C

1008.8 hpa

82 %

16.1 km/h aus 114

27.4 km/h aus SSE

3.3 C

2.8 C

2.9 C

6.1 C

0 W/m

0.00 mm

06:55

6.1 C

1008.8 hpa

83 %

19.3 km/h aus 117

30.6 km/h aus S

3.4 C

2.3 C

2.4 C

6.0 C

0 W/m

0.00 mm

07:00

6.1 C

1008.8 hpa

83 %

17.7 km/h aus 117

29.0 km/h aus S

3.4 C

2.5 C

2.6 C

6.0 C

0 W/m

0.00 mm

07:05

6.1 C

1008.8 hpa

83 %

17.7 km/h aus 118

25.7 km/h aus S

3.4 C

2.4 C

2.6 C

5.9 C

0 W/m

0.00 mm

07:10

6.0 C

1008.8 hpa

84 %

19.3 km/h aus 116

29.0 km/h aus SSE

3.5 C

2.2 C

2.3 C

5.9 C

0 W/m

0.00 mm

07:15

5.9 C

1008.7 hpa

84 %

20.9 km/h aus 112

33.8 km/h aus S

3.4 C

1.9 C

2.0 C

5.8 C

0 W/m

0.00 mm

07:20

5.8 C

1008.7 hpa

84 %

20.9 km/h aus 113

30.6 km/h aus SSE

3.3 C

1.7 C

1.8 C

5.7 C

0 W/m

0.00 mm

07:25

5.8 C

1008.7 hpa

85 %

20.9 km/h aus 115

35.4 km/h aus S

3.5 C

1.8 C

1.8 C

5.8 C

0 W/m

0.00 mm

07:30

5.8 C

1008.7 hpa

84 %

14.5 km/h aus 117

22.5 km/h aus S

3.3 C

2.7 C

2.8 C

5.7 C

0 W/m

0.00 mm

07:35

5.8 C

1008.7 hpa

85 %

16.1 km/h aus 116

27.4 km/h aus S

3.5 C

2.5 C

2.6 C

5.8 C

0 W/m

0.00 mm

07:40

5.8 C

1008.7 hpa

85 %

19.3 km/h aus 116

29.0 km/h aus SSE

3.5 C

1.9 C

2.0 C

5.7 C

0 W/m

0.00 mm

07:45

5.8 C

1008.7 hpa

85 %

17.7 km/h aus 114

27.4 km/h aus SSE

3.5 C

2.2 C

2.3 C

5.8 C

1 W/m

0.00 mm

07:50

5.8 C

1008.7 hpa

85 %

17.7 km/h aus 115

27.4 km/h aus SSW

3.5 C

2.2 C

2.3 C

5.8 C

6 W/m

0.00 mm

07:55

5.8 C

1008.7 hpa

85 %

17.7 km/h aus 116

25.7 km/h aus SSE

3.5 C

2.2 C

2.3 C

5.8 C

8 W/m

0.00 mm

08:00

5.8 C

1008.8 hpa

85 %

19.3 km/h aus 116

33.8 km/h aus SSE

3.5 C

2.0 C

2.1 C

5.8 C

10 W/m

0.00 mm

08:05

5.9 C

1008.8 hpa

85 %

17.7 km/h aus 117

30.6 km/h aus SSW

3.6 C

2.3 C

2.4 C

5.9 C

15 W/m

0.00 mm

08:10

5.9 C

1008.8 hpa

84 %

22.5 km/h aus 117

38.6 km/h aus SSE

3.4 C

1.7 C

1.8 C

5.8 C

19 W/m

0.00 mm

08:15

6.0 C

1008.8 hpa

84 %

19.3 km/h aus 111

32.2 km/h aus S

3.5 C

2.2 C

2.3 C

5.9 C

21 W/m

0.00 mm

08:20

6.0 C

1008.8 hpa

85 %

17.7 km/h aus 113

29.0 km/h aus S

3.7 C

2.4 C

2.5 C

5.9 C

28 W/m

0.00 mm

08:25

6.1 C

1008.8 hpa

85 %

22.5 km/h aus 113

40.2 km/h aus SSE

3.7 C

1.9 C

1.9 C

6.0 C

30 W/m

0.00 mm

08:30

6.1 C

1008.8 hpa

85 %

22.5 km/h aus 111

32.2 km/h aus SW

3.7 C

1.9 C

1.9 C

6.0 C

22 W/m

0.00 mm

08:35

6.1 C

1008.8 hpa

85 %

24.1 km/h aus 116

41.8 km/h aus S

3.8 C

1.7 C

1.8 C

6.1 C

23 W/m

0.00 mm

08:40

6.1 C

1008.8 hpa

85 %

22.5 km/h aus 113

38.6 km/h aus S

3.8 C

1.9 C

2.0 C

6.1 C

22 W/m

0.00 mm

08:45

6.1 C

1008.8 hpa

86 %

19.3 km/h aus 116

30.6 km/h aus S

3.9 C

2.3 C

2.4 C

6.1 C

24 W/m

0.00 mm

08:50

6.1 C

1008.8 hpa

86 %

19.3 km/h aus 114

27.4 km/h aus S

3.9 C

2.3 C

2.3 C

6.0 C

25 W/m

0.00 mm

08:55

6.1 C

1008.8 hpa

86 %

24.1 km/h aus 116

38.6 km/h aus S

3.9 C

1.7 C

1.8 C

6.1 C

37 W/m

0.00 mm

09:00

6.2 C

1008.7 hpa

85 %

20.9 km/h aus 115

37.0 km/h aus SSW

3.8 C

2.2 C

2.2 C

6.1 C

29 W/m

0.00 mm

09:05

6.2 C

1008.7 hpa

85 %

24.1 km/h aus 112

41.8 km/h aus S

3.9 C

1.8 C

1.9 C

6.2 C

36 W/m

0.00 mm

09:10

6.3 C

1008.7 hpa

85 %

20.9 km/h aus 117

35.4 km/h aus SSW

3.9 C

2.3 C

2.3 C

6.2 C

49 W/m

0.00 mm

09:15

6.3 C

1008.7 hpa

85 %

22.5 km/h aus 115

40.2 km/h aus SW

4.0 C

2.2 C

2.2 C

6.3 C

70 W/m

0.00 mm

09:20

6.4 C

1008.7 hpa

84 %

25.7 km/h aus 112

37.0 km/h aus S

3.9 C

1.9 C

2.0 C

6.4 C

64 W/m

0.00 mm

09:25

6.6 C

1008.7 hpa

84 %

24.1 km/h aus 111

38.6 km/h aus SSE

4.0 C

2.3 C

2.3 C

6.5 C

71 W/m

0.00 mm

09:30

6.6 C

1008.7 hpa

84 %

20.9 km/h aus 116

33.8 km/h aus S

4.0 C

2.6 C

2.7 C

6.5 C

101 W/m

0.00 mm

09:35

6.7 C

1008.7 hpa

84 %

24.1 km/h aus 114

40.2 km/h aus S

4.2 C

2.4 C

2.4 C

6.6 C

100 W/m

0.00 mm

09:40

6.7 C

1008.7 hpa

84 %

25.7 km/h aus 114

41.8 km/h aus S

4.2 C

2.3 C

2.3 C

6.7 C

106 W/m

0.00 mm

09:45

6.8 C

1008.7 hpa

84 %

22.5 km/h aus 114

33.8 km/h aus S

4.3 C

2.7 C

2.7 C

6.7 C

132 W/m

0.00 mm

09:50

6.9 C

1008.7 hpa

84 %

27.4 km/h aus 112

40.2 km/h aus SSE

4.4 C

2.3 C

2.3 C

6.8 C

161 W/m

0.00 mm

09:55

6.9 C

1008.7 hpa

83 %

27.4 km/h aus 111

41.8 km/h aus S

4.3 C

2.3 C

2.4 C

6.9 C

144 W/m

0.00 mm

10:00

7.1 C

1008.5 hpa

83 %

20.9 km/h aus 114

35.4 km/h aus S

4.4 C

3.3 C

3.3 C

7.1 C

199 W/m

0.00 mm

10:05

7.2 C

1008.5 hpa

82 %

20.9 km/h aus 117

30.6 km/h aus S

4.4 C

3.3 C

3.4 C

7.1 C

136 W/m

0.00 mm

10:10

7.2 C

1008.5 hpa

82 %

24.1 km/h aus 115

37.0 km/h aus SSE

4.3 C

2.9 C

3.0 C

7.1 C

133 W/m

0.00 mm

10:15

7.2 C

1008.5 hpa

82 %

16.1 km/h aus 115

29.0 km/h aus SSE

4.4 C

4.1 C

4.2 C

7.1 C

149 W/m

0.00 mm

10:20

7.3 C

1008.5 hpa

81 %

20.9 km/h aus 114

29.0 km/h aus S

4.3 C

3.4 C

3.6 C

7.2 C

131 W/m

0.00 mm

10:25

7.3 C

1008.5 hpa

81 %

17.7 km/h aus 115

29.0 km/h aus SSE

4.3 C

3.9 C

4.0 C

7.2 C

143 W/m

0.00 mm

10:30

7.4 C

1008.5 hpa

81 %

20.9 km/h aus 114

30.6 km/h aus S

4.4 C

3.6 C

3.7 C

7.3 C

139 W/m

0.00 mm

10:35

7.5 C

1008.5 hpa

81 %

16.1 km/h aus 117

27.4 km/h aus S

4.4 C

4.4 C

4.5 C

7.4 C

118 W/m

0.00 mm

10:40

7.5 C

1008.5 hpa

80 %

20.9 km/h aus 116

33.8 km/h aus S

4.3 C

3.7 C

3.8 C

7.4 C

114 W/m

0.00 mm

10:45

7.6 C

1008.5 hpa

80 %

19.3 km/h aus 113

29.0 km/h aus S

4.3 C

3.9 C

4.1 C

7.4 C

122 W/m

0.00 mm

10:50

7.7 C

1008.5 hpa

80 %

20.9 km/h aus 107

33.8 km/h aus S

4.4 C

3.8 C

3.9 C

7.6 C

136 W/m

0.00 mm

10:55

7.7 C

1008.5 hpa

79 %

22.5 km/h aus 107

38.6 km/h aus S

4.3 C

3.7 C

3.8 C

7.6 C

151 W/m

0.00 mm

11:00

7.8 C

1008.4 hpa

79 %

20.9 km/h aus 113

32.2 km/h aus SSW

4.4 C

4.0 C

4.1 C

7.7 C

121 W/m

0.00 mm

11:05

7.8 C

1008.4 hpa

79 %

22.5 km/h aus 111

41.8 km/h aus SSE

4.4 C

3.8 C

3.9 C

7.7 C

123 W/m

0.00 mm

11:10

7.9 C

1008.4 hpa

79 %

22.5 km/h aus 109

38.6 km/h aus S

4.5 C

3.9 C

4.0 C

7.8 C

166 W/m

0.00 mm

11:15

8.0 C

1008.3 hpa

79 %

22.5 km/h aus 107

37.0 km/h aus SSE

4.6 C

4.0 C

4.1 C

7.9 C

169 W/m

0.00 mm

11:20

8.1 C

1008.3 hpa

78 %

20.9 km/h aus 111

35.4 km/h aus S

4.4 C

4.2 C

4.4 C

7.9 C

125 W/m

0.00 mm

11:25

8.1 C

1008.3 hpa

78 %

22.5 km/h aus 107

30.6 km/h aus S

4.4 C

4.1 C

4.2 C

7.9 C

122 W/m

0.00 mm

11:30

8.1 C

1008.3 hpa

78 %

25.7 km/h aus 101

35.4 km/h aus S

4.5 C

3.7 C

3.9 C

7.9 C

147 W/m

0.00 mm

11:35

8.2 C

1008.3 hpa

78 %

27.4 km/h aus 105

40.2 km/h aus SSE

4.6 C

3.7 C

3.8 C

8.0 C

149 W/m

0.00 mm

11:40

8.1 C

1008.3 hpa

78 %

25.7 km/h aus 110

37.0 km/h aus SSE

4.5 C

3.7 C

3.9 C

7.9 C

116 W/m

0.00 mm

11:45

8.1 C

1008.3 hpa

78 %

25.7 km/h aus 99

38.6 km/h aus SSW

4.5 C

3.7 C

3.9 C

7.9 C

85 W/m

0.00 mm

11:50

8.1 C

1008.3 hpa

78 %

29.0 km/h aus 98

38.6 km/h aus SSE

4.5 C

3.4 C

3.6 C

7.9 C

96 W/m

0.00 mm

11:55

8.1 C

1008.3 hpa

78 %

22.5 km/h aus 115

41.8 km/h aus S

4.4 C

4.1 C

4.2 C

7.9 C

89 W/m

0.00 mm

12:00

8.1 C

1008.3 hpa

79 %

19.3 km/h aus 107

37.0 km/h aus S

4.6 C

4.5 C

4.6 C

7.9 C

105 W/m

0.00 mm

12:05

8.1 C

1008.3 hpa

79 %

25.7 km/h aus 112

38.6 km/h aus S

4.6 C

3.7 C

3.8 C

7.9 C

102 W/m

0.00 mm

12:10

8.1 C

1008.3 hpa

79 %

25.7 km/h aus 112

37.0 km/h aus SSW

4.6 C

3.7 C

3.8 C

7.9 C

111 W/m

0.00 mm

12:15

8.1 C

1007.7 hpa

80 %

27.4 km/h aus 113

40.2 km/h aus SSE

4.8 C

3.6 C

3.7 C

7.9 C

135 W/m

0.00 mm

12:20

8.1 C

1007.7 hpa

80 %

22.5 km/h aus 114

33.8 km/h aus S

4.8 C

4.1 C

4.2 C

7.9 C

127 W/m

0.00 mm

12:25

8.1 C

1007.7 hpa

79 %

22.5 km/h aus 117

33.8 km/h aus S

4.6 C

4.1 C

4.2 C

7.9 C

123 W/m

0.00 mm

12:30

8.1 C

1007.7 hpa

79 %

22.5 km/h aus 113

35.4 km/h aus S

4.7 C

4.2 C

4.3 C

8.0 C

113 W/m

0.00 mm

12:35

8.2 C

1007.7 hpa

78 %

25.7 km/h aus 110

35.4 km/h aus S

4.6 C

3.8 C

3.9 C

8.0 C

131 W/m

0.00 mm

12:40

8.3 C

1007.7 hpa

78 %

25.7 km/h aus 105

38.6 km/h aus SSE

4.7 C

4.0 C

4.1 C

8.2 C

138 W/m

0.00 mm

12:45

8.4 C

1007.4 hpa

78 %

19.3 km/h aus 115

30.6 km/h aus SSW

4.8 C

4.9 C

5.0 C

8.3 C

150 W/m

0.00 mm

12:50

8.6 C

1007.4 hpa

77 %

27.4 km/h aus 115

43.5 km/h aus SSE

4.8 C

4.1 C

4.2 C

8.4 C

163 W/m

0.00 mm

12:55

8.7 C

1007.4 hpa

77 %

24.1 km/h aus 114

38.6 km/h aus SSE

4.9 C

4.6 C

4.7 C

8.6 C

191 W/m

0.00 mm

13:00

8.8 C

1007.2 hpa

76 %

24.1 km/h aus 110

41.8 km/h aus SSE

4.8 C

4.7 C

4.8 C

8.6 C

170 W/m

0.00 mm

13:05

8.8 C

1007.2 hpa

76 %

19.3 km/h aus 113

33.8 km/h aus SSE

4.8 C

5.3 C

5.5 C

8.7 C

176 W/m

0.00 mm

13:10

8.9 C

1007.2 hpa

76 %

24.1 km/h aus 115

35.4 km/h aus SSE

4.9 C

4.8 C

5.0 C

8.8 C

181 W/m

0.00 mm

13:15

8.9 C

1007.2 hpa

76 %

22.5 km/h aus 115

38.6 km/h aus S

4.9 C

5.0 C

5.2 C

8.8 C

139 W/m

0.00 mm

13:20

8.9 C

1007.2 hpa

76 %

24.1 km/h aus 108

38.6 km/h aus S

4.9 C

4.8 C

5.0 C

8.8 C

163 W/m

0.00 mm

13:25

8.9 C

1007.2 hpa

75 %

19.3 km/h aus 113

29.0 km/h aus S

4.7 C

5.4 C

5.6 C

8.8 C

132 W/m

0.00 mm

13:30

8.9 C

1007.0 hpa

76 %

24.1 km/h aus 112

32.2 km/h aus S

4.9 C

4.8 C

5.0 C

8.8 C

122 W/m

0.00 mm

13:35

8.9 C

1007.0 hpa

76 %

24.1 km/h aus 111

35.4 km/h aus SSE

4.9 C

4.8 C

5.0 C

8.8 C

142 W/m

0.00 mm

13:40

9.0 C

1007.0 hpa

76 %

22.5 km/h aus 111

35.4 km/h aus SSE

5.0 C

5.1 C

5.2 C

8.8 C

182 W/m

0.00 mm

13:45

9.1 C

1006.7 hpa

75 %

25.7 km/h aus 113

38.6 km/h aus S

4.9 C

4.8 C

4.9 C

8.9 C

180 W/m

0.00 mm

13:50

9.1 C

1006.7 hpa

75 %

25.7 km/h aus 112

40.2 km/h aus SSE

4.9 C

4.8 C

4.9 C

8.9 C

129 W/m

0.00 mm

13:55

9.1 C

1006.7 hpa

75 %

25.7 km/h aus 112

38.6 km/h aus SSE

4.9 C

4.8 C

4.9 C

8.9 C

107 W/m

0.00 mm

14:00

9.1 C

1006.5 hpa

76 %

20.9 km/h aus 114

35.4 km/h aus SSE

5.0 C

5.3 C

5.5 C

8.9 C

99 W/m

0.00 mm

14:05

9.0 C

1006.5 hpa

75 %

27.4 km/h aus 114

35.4 km/h aus S

4.8 C

4.6 C

4.7 C

8.8 C

84 W/m

0.00 mm

14:10

9.1 C

1006.5 hpa

75 %

17.7 km/h aus 117

32.2 km/h aus S

4.9 C

5.8 C

6.0 C

8.9 C

96 W/m

0.00 mm

14:15

9.1 C

1006.2 hpa

75 %

22.5 km/h aus 107

41.8 km/h aus SSE

4.9 C

5.2 C

5.3 C

8.9 C

100 W/m

0.00 mm

14:20

9.0 C

1006.2 hpa

75 %

24.1 km/h aus 108

33.8 km/h aus SSE

4.8 C

4.9 C

5.1 C

8.8 C

60 W/m

0.00 mm

14:25

8.9 C

1006.2 hpa

75 %

22.5 km/h aus 109

37.0 km/h aus SE

4.7 C

5.0 C

5.2 C

8.8 C

51 W/m

0.00 mm

14:30

8.9 C

1006.2 hpa

75 %

20.9 km/h aus 114

29.0 km/h aus SSE

4.7 C

5.2 C

5.4 C

8.8 C

60 W/m

0.00 mm

14:35

8.9 C

1006.2 hpa

76 %

22.5 km/h aus 82

33.8 km/h aus S

4.9 C

4.9 C

5.1 C

8.7 C

44 W/m

0.00 mm

14:40

8.8 C

1006.2 hpa

76 %

20.9 km/h aus 88

30.6 km/h aus SSE

4.8 C

5.1 C

5.3 C

8.7 C

43 W/m

0.00 mm

14:45

8.8 C

1006.1 hpa

76 %

19.3 km/h aus 99

29.0 km/h aus SSE

4.8 C

5.3 C

5.5 C

8.7 C

52 W/m

0.00 mm

14:50

8.8 C

1006.1 hpa

77 %

22.5 km/h aus 85

30.6 km/h aus SSE

5.0 C

4.9 C

5.0 C

8.7 C

58 W/m

0.00 mm

14:55

8.7 C

1006.1 hpa

77 %

22.5 km/h aus 81

35.4 km/h aus SE

4.9 C

4.8 C

4.9 C

8.6 C

61 W/m

0.00 mm

15:00

8.7 C

1005.8 hpa

77 %

22.5 km/h aus 85

35.4 km/h aus SE

4.9 C

4.8 C

4.9 C

8.6 C

61 W/m

0.00 mm

15:05

8.7 C

1005.8 hpa

77 %

27.4 km/h aus 59

35.4 km/h aus SSE

4.9 C

4.3 C

4.4 C

8.6 C

62 W/m

0.00 mm

15:10

8.7 C

1005.8 hpa

77 %

22.5 km/h aus 107

32.2 km/h aus S

4.9 C

4.8 C

4.9 C

8.6 C

64 W/m

0.00 mm

15:15

8.7 C

1005.7 hpa

78 %

24.1 km/h aus 115

30.6 km/h aus SE

5.0 C

4.6 C

4.7 C

8.6 C

57 W/m

0.00 mm

15:20

8.6 C

1005.7 hpa

78 %

25.7 km/h aus 101

37.0 km/h aus SSE

5.0 C

4.4 C

4.5 C

8.5 C

58 W/m

0.00 mm

15:25

8.6 C

1005.7 hpa

79 %

24.1 km/h aus 105

35.4 km/h aus SE

5.1 C

4.4 C

4.6 C

8.4 C

69 W/m

0.00 mm

15:30

8.5 C

1005.6 hpa

79 %

22.5 km/h aus 107

37.0 km/h aus S

5.1 C

4.6 C

4.7 C

8.4 C

70 W/m

0.00 mm

15:35

8.3 C

1005.6 hpa

80 %

24.1 km/h aus 116

33.8 km/h aus SSE

5.1 C

4.2 C

4.3 C

8.2 C

65 W/m

0.00 mm

15:40

8.3 C

1005.6 hpa

81 %

25.7 km/h aus 113

38.6 km/h aus SSE

5.2 C

4.0 C

4.1 C

8.2 C

64 W/m

0.00 mm

15:45

8.2 C

1005.2 hpa

81 %

24.1 km/h aus 116

35.4 km/h aus SSE

5.2 C

4.1 C

4.2 C

8.1 C

45 W/m

0.00 mm

15:50

8.2 C

1005.2 hpa

81 %

22.5 km/h aus 105

37.0 km/h aus SSE

5.1 C

4.2 C

4.3 C

8.1 C

34 W/m

0.00 mm

15:55

8.1 C

1005.2 hpa

81 %

19.3 km/h aus 113

30.6 km/h aus SSE

5.0 C

4.6 C

4.7 C

8.0 C

31 W/m

0.00 mm

16:00

8.1 C

1005.1 hpa

81 %

25.7 km/h aus 108

35.4 km/h aus SSE

5.0 C

3.7 C

3.8 C

7.9 C

30 W/m

0.00 mm

16:05

8.1 C

1005.1 hpa

81 %

22.5 km/h aus 116

37.0 km/h aus SE

5.0 C

4.1 C

4.2 C

7.9 C

33 W/m

0.00 mm

16:10

8.1 C

1005.1 hpa

81 %

22.5 km/h aus 115

33.8 km/h aus SSE

5.0 C

4.1 C

4.2 C

7.9 C

29 W/m

0.00 mm

16:15

8.1 C

1004.9 hpa

80 %

25.7 km/h aus 108

41.8 km/h aus SSE

4.9 C

3.8 C

3.9 C

8.0 C

24 W/m

0.00 mm

16:20

8.2 C

1004.9 hpa

80 %

22.5 km/h aus 108

32.2 km/h aus SSE

4.9 C

4.2 C

4.3 C

8.1 C

24 W/m

0.00 mm

16:25

8.2 C

1004.9 hpa

80 %

19.3 km/h aus 115

27.4 km/h aus SSE

4.9 C

4.6 C

4.7 C

8.1 C

19 W/m

0.00 mm

16:30

8.2 C

1004.6 hpa

80 %

22.5 km/h aus 109

37.0 km/h aus SSE

4.9 C

4.2 C

4.3 C

8.1 C

14 W/m

0.00 mm

16:35

8.2 C

1004.6 hpa

80 %

19.3 km/h aus 108

30.6 km/h aus SSE

4.9 C

4.6 C

4.7 C

8.1 C

12 W/m

0.00 mm

16:40

8.2 C

1004.6 hpa

79 %

24.1 km/h aus 68

35.4 km/h aus SSE

4.8 C

4.1 C

4.2 C

8.1 C

11 W/m

0.00 mm

16:45

8.3 C

1004.6 hpa

79 %

24.1 km/h aus 90

37.0 km/h aus S

4.8 C

4.2 C

4.3 C

8.2 C

10 W/m

0.00 mm

16:50

8.3 C

1004.6 hpa

78 %

25.7 km/h aus 81

37.0 km/h aus SSE

4.7 C

4.1 C

4.2 C

8.2 C

11 W/m

0.00 mm

16:55

8.4 C

1004.6 hpa

78 %

29.0 km/h aus 86

53.1 km/h aus SE

4.8 C

3.8 C

3.9 C

8.3 C

7 W/m

0.00 mm

17:00

8.4 C

1004.5 hpa

78 %

25.7 km/h aus 73

38.6 km/h aus SE

4.8 C

4.2 C

4.3 C

8.3 C

5 W/m

0.00 mm

17:05

8.4 C

1004.5 hpa

77 %

25.7 km/h aus 69

40.2 km/h aus S

4.6 C

4.1 C

4.3 C

8.3 C

5 W/m

0.00 mm

17:10

8.5 C

1004.5 hpa

77 %

25.7 km/h aus 69

41.8 km/h aus SSE

4.7 C

4.2 C

4.3 C

8.4 C

0 W/m

0.00 mm

17:15

8.6 C

1004.3 hpa

77 %

30.6 km/h aus 71

49.9 km/h aus SE

4.8 C

3.8 C

3.9 C

8.4 C

0 W/m

0.00 mm

17:20

8.6 C

1004.3 hpa

77 %

25.7 km/h aus 72

38.6 km/h aus SSE

4.8 C

4.3 C

4.4 C

8.4 C

0 W/m

0.00 mm

17:25

8.6 C

1004.3 hpa

77 %

24.1 km/h aus 67

38.6 km/h aus SSE

4.8 C

4.4 C

4.6 C

8.4 C

0 W/m

0.00 mm

17:30

8.6 C

1004.2 hpa

77 %

24.1 km/h aus 67

40.2 km/h aus SSE

4.8 C

4.4 C

4.6 C

8.4 C

0 W/m

0.00 mm

17:35

8.6 C

1004.2 hpa

76 %

22.5 km/h aus 100

41.8 km/h aus S

4.6 C

4.6 C

4.7 C

8.4 C

0 W/m

0.00 mm

17:40

8.6 C

1004.2 hpa

76 %

25.7 km/h aus 68

35.4 km/h aus S

4.6 C

4.3 C

4.5 C

8.4 C

0 W/m

0.00 mm

17:45

8.6 C

1004.1 hpa

76 %

30.6 km/h aus 96

49.9 km/h aus SSE

4.6 C

3.9 C

4.1 C

8.4 C

0 W/m

0.00 mm

17:50

8.7 C

1004.1 hpa

76 %

20.9 km/h aus 112

35.4 km/h aus SSE

4.7 C

4.9 C

5.1 C

8.5 C

0 W/m

0.00 mm

17:55

8.7 C

1004.1 hpa

76 %

25.7 km/h aus 116

40.2 km/h aus SSE

4.7 C

4.4 C

4.6 C

8.5 C

0 W/m

0.00 mm

18:00

8.6 C

1003.7 hpa

76 %

29.0 km/h aus 115

48.3 km/h aus S

4.6 C

4.0 C

4.2 C

8.4 C

0 W/m

0.00 mm

18:05

8.7 C

1003.7 hpa

76 %

25.7 km/h aus 116

40.2 km/h aus SSE

4.7 C

4.4 C

4.6 C

8.5 C

0 W/m

0.00 mm

18:10

8.7 C

1003.7 hpa

76 %

27.4 km/h aus 115

40.2 km/h aus SE

4.7 C

4.2 C

4.4 C

8.5 C

0 W/m

0.00 mm

18:15

8.7 C

1003.5 hpa

76 %

30.6 km/h aus 109

45.1 km/h aus SE

4.7 C

3.9 C

4.1 C

8.5 C

0 W/m

0.00 mm

18:20

8.7 C

1003.5 hpa

76 %

25.7 km/h aus 113

37.0 km/h aus SSE

4.7 C

4.4 C

4.6 C

8.5 C

0 W/m

0.00 mm

18:25

8.7 C

1003.5 hpa

75 %

33.8 km/h aus 110

51.5 km/h aus SSE

4.5 C

3.7 C

3.8 C

8.5 C

0 W/m

0.00 mm

18:30

8.7 C

1003.2 hpa

75 %

25.7 km/h aus 113

38.6 km/h aus S

4.5 C

4.4 C

4.6 C

8.5 C

0 W/m

0.00 mm

18:35

8.7 C

1003.2 hpa

75 %

27.4 km/h aus 111

48.3 km/h aus S

4.5 C

4.2 C

4.4 C

8.5 C

0 W/m

0.00 mm

18:40

8.7 C

1003.2 hpa

74 %

27.4 km/h aus 105

40.2 km/h aus SSE

4.3 C

4.3 C

4.4 C

8.6 C

0 W/m

0.00 mm

18:45

8.7 C

1003.1 hpa

74 %

24.1 km/h aus 113

43.5 km/h aus SSE

4.3 C

4.6 C

4.8 C

8.6 C

0 W/m

0.00 mm

18:50

8.7 C

1003.1 hpa

74 %

27.4 km/h aus 115

43.5 km/h aus S

4.3 C

4.3 C

4.4 C

8.6 C

0 W/m

0.00 mm

18:55

8.7 C

1003.1 hpa

74 %

30.6 km/h aus 112

51.5 km/h aus SSE

4.3 C

4.0 C

4.2 C

8.6 C

0 W/m

0.00 mm

19:00

8.8 C

1003.0 hpa

74 %

29.0 km/h aus 115

41.8 km/h aus S

4.4 C

4.2 C

4.4 C

8.6 C

0 W/m

0.00 mm

19:05

8.7 C

1003.0 hpa

74 %

33.8 km/h aus 108

51.5 km/h aus SSE

4.3 C

3.7 C

3.9 C

8.6 C

0 W/m

0.00 mm

19:10

8.8 C

1003.0 hpa

74 %

30.6 km/h aus 111

43.5 km/h aus SSE

4.4 C

4.1 C

4.2 C

8.6 C

0 W/m

0.00 mm

19:15

8.8 C

1002.5 hpa

74 %

27.4 km/h aus 113

38.6 km/h aus SSE

4.4 C

4.3 C

4.5 C

8.6 C

0 W/m

0.00 mm

19:20

8.7 C

1002.5 hpa

74 %

29.0 km/h aus 115

45.1 km/h aus SSE

4.3 C

4.1 C

4.3 C

8.6 C

0 W/m

0.00 mm

19:25

8.7 C

1002.5 hpa

74 %

25.7 km/h aus 113

35.4 km/h aus SSE

4.3 C

4.4 C

4.6 C

8.5 C

0 W/m

0.00 mm

19:30

8.7 C

1002.5 hpa

74 %

24.1 km/h aus 115

35.4 km/h aus SSE

4.3 C

4.6 C

4.7 C

8.5 C

0 W/m

0.00 mm

19:35

8.7 C

1002.5 hpa

74 %

27.4 km/h aus 108

37.0 km/h aus SSE

4.3 C

4.2 C

4.4 C

8.5 C

0 W/m

0.00 mm

19:40

8.7 C

1002.5 hpa

74 %

27.4 km/h aus 115

46.7 km/h aus SSE

4.3 C

4.2 C

4.4 C

8.5 C

0 W/m

0.00 mm

19:45

8.7 C

1002.5 hpa

74 %

27.4 km/h aus 116

40.2 km/h aus SSE

4.3 C

4.2 C

4.4 C

8.5 C

0 W/m

0.00 mm

19:50

8.7 C

1002.5 hpa

74 %

22.5 km/h aus 116

33.8 km/h aus S

4.3 C

4.7 C

4.9 C

8.5 C

0 W/m

0.00 mm

19:55

8.7 C

1002.5 hpa

74 %

24.1 km/h aus 117

45.1 km/h aus SSE

4.3 C

4.6 C

4.7 C

8.5 C

0 W/m

0.00 mm

20:00

8.7 C

1002.3 hpa

74 %

29.0 km/h aus 113

43.5 km/h aus SSE

4.3 C

4.1 C

4.3 C

8.6 C

0 W/m

0.00 mm

20:05

8.7 C

1002.3 hpa

74 %

25.7 km/h aus 112

40.2 km/h aus S

4.3 C

4.4 C

4.6 C

8.5 C

0 W/m

0.00 mm

20:10

8.7 C

1002.3 hpa

74 %

24.1 km/h aus 115

33.8 km/h aus SSE

4.3 C

4.6 C

4.7 C

8.5 C

0 W/m

0.00 mm

20:15

8.7 C

1002.0 hpa

74 %

25.7 km/h aus 116

43.5 km/h aus S

4.3 C

4.4 C

4.6 C

8.6 C

0 W/m

0.00 mm

20:20

8.7 C

1002.0 hpa

74 %

25.7 km/h aus 115

35.4 km/h aus SSE

4.3 C

4.4 C

4.6 C

8.6 C

0 W/m

0.00 mm

20:25

8.7 C

1002.0 hpa

74 %

22.5 km/h aus 117

30.6 km/h aus SSE

4.3 C

4.8 C

4.9 C

8.6 C

0 W/m

0.00 mm

20:30

8.8 C

1001.9 hpa

74 %

27.4 km/h aus 110

41.8 km/h aus SSE

4.4 C

4.3 C

4.5 C

8.6 C

0 W/m

0.00 mm

20:35

8.8 C

1001.9 hpa

73 %

22.5 km/h aus 116

35.4 km/h aus S

4.2 C

4.8 C

5.0 C

8.6 C

0 W/m

0.00 mm

20:40

8.8 C

1001.9 hpa

73 %

20.9 km/h aus 116

35.4 km/h aus SSE

4.2 C

5.0 C

5.2 C

8.6 C

0 W/m

0.00 mm

20:45

8.8 C

1001.6 hpa

74 %

20.9 km/h aus 115

37.0 km/h aus SSE

4.4 C

5.1 C

5.2 C

8.6 C

0 W/m

0.00 mm

20:50

8.8 C

1001.6 hpa

73 %

25.7 km/h aus 113

37.0 km/h aus SSE

4.2 C

4.4 C

4.7 C

8.6 C

0 W/m

0.00 mm

20:55

8.8 C

1001.6 hpa

73 %

20.9 km/h aus 111

32.2 km/h aus S

4.3 C

5.1 C

5.3 C

8.6 C

0 W/m

0.00 mm

21:00

8.8 C

1001.4 hpa

73 %

22.5 km/h aus 115

30.6 km/h aus SSE

4.3 C

4.8 C

5.1 C

8.6 C

0 W/m

0.00 mm

21:05

8.8 C

1001.4 hpa

73 %

25.7 km/h aus 112

35.4 km/h aus SSE

4.2 C

4.4 C

4.7 C

8.6 C

0 W/m

0.00 mm

21:10

8.8 C

1001.4 hpa

73 %

22.5 km/h aus 117

30.6 km/h aus SSE

4.2 C

4.8 C

5.0 C

8.6 C

0 W/m

0.00 mm

21:15

8.8 C

1001.2 hpa

73 %

22.5 km/h aus 114

40.2 km/h aus SSE

4.3 C

4.8 C

5.1 C

8.6 C

0 W/m

0.00 mm

21:20

8.8 C

1001.2 hpa

73 %

24.1 km/h aus 114

45.1 km/h aus SSE

4.3 C

4.7 C

4.9 C

8.6 C

0 W/m

0.00 mm

21:25

8.8 C

1001.2 hpa

73 %

24.1 km/h aus 115

38.6 km/h aus SSE

4.3 C

4.7 C

4.9 C

8.6 C

0 W/m

0.00 mm

21:30

8.8 C

1000.9 hpa

73 %

19.3 km/h aus 115

32.2 km/h aus SSE

4.3 C

5.3 C

5.5 C

8.6 C

0 W/m

0.00 mm

21:35

8.8 C

1000.9 hpa

73 %

22.5 km/h aus 117

35.4 km/h aus S

4.3 C

4.8 C

5.1 C

8.6 C

0 W/m

0.00 mm

21:40

8.8 C

1000.9 hpa

73 %

22.5 km/h aus 115

35.4 km/h aus SE

4.3 C

4.8 C

5.1 C

8.6 C

0 W/m

0.00 mm

21:45

8.8 C

1000.5 hpa

73 %

20.9 km/h aus 117

30.6 km/h aus SSE

4.3 C

5.1 C

5.3 C

8.6 C

0 W/m

0.00 mm

21:50

8.8 C

1000.5 hpa

73 %

27.4 km/h aus 113

43.5 km/h aus S

4.3 C

4.3 C

4.6 C

8.6 C

0 W/m

0.00 mm

21:55

8.8 C

1000.5 hpa

73 %

22.5 km/h aus 113

33.8 km/h aus SSE

4.3 C

4.8 C

5.1 C

8.6 C

0 W/m

0.00 mm

22:00

8.8 C

1000.4 hpa

73 %

24.1 km/h aus 113

33.8 km/h aus SSE

4.3 C

4.7 C

4.9 C

8.6 C

0 W/m

0.00 mm

22:05

8.8 C

1000.4 hpa

74 %

24.1 km/h aus 114

37.0 km/h aus S

4.4 C

4.7 C

4.9 C

8.7 C

0 W/m

0.00 mm

22:10

8.8 C

1000.4 hpa

74 %

24.1 km/h aus 117

35.4 km/h aus S

4.4 C

4.7 C

4.8 C

8.6 C

0 W/m

0.00 mm

22:15

8.8 C

1000.3 hpa

73 %

30.6 km/h aus 106

41.8 km/h aus SSE

4.3 C

4.1 C

4.3 C

8.6 C

0 W/m

0.00 mm

22:20

8.8 C

1000.3 hpa

73 %

29.0 km/h aus 112

40.2 km/h aus SSE

4.3 C

4.2 C

4.4 C

8.6 C

0 W/m

0.00 mm

22:25

8.8 C

1000.3 hpa

73 %

27.4 km/h aus 111

38.6 km/h aus SSE

4.3 C

4.3 C

4.6 C

8.6 C

0 W/m

0.00 mm

22:30

8.8 C

1000.0 hpa

73 %

22.5 km/h aus 116

37.0 km/h aus SSE

4.3 C

4.8 C

5.1 C

8.6 C

0 W/m

0.00 mm

22:35

8.8 C

1000.0 hpa

73 %

29.0 km/h aus 113

49.9 km/h aus SSE

4.3 C

4.2 C

4.4 C

8.6 C

0 W/m

0.00 mm

22:40

8.8 C

1000.0 hpa

73 %

22.5 km/h aus 116

32.2 km/h aus SSE

4.3 C

4.8 C

5.1 C

8.6 C

0 W/m

0.00 mm

22:45

8.8 C

999.9 hpa

73 %

27.4 km/h aus 114

40.2 km/h aus SSE

4.2 C

4.3 C

4.5 C

8.6 C

0 W/m

0.00 mm

22:50

8.7 C

999.9 hpa

74 %

19.3 km/h aus 113

30.6 km/h aus SSE

4.3 C

5.2 C

5.4 C

8.6 C

0 W/m

0.00 mm

22:55

8.7 C

999.9 hpa

74 %

27.4 km/h aus 112

38.6 km/h aus SSE

4.3 C

4.3 C

4.4 C

8.6 C

0 W/m

0.00 mm

23:00

8.7 C

999.6 hpa

74 %

24.1 km/h aus 116

35.4 km/h aus SSE

4.3 C

4.6 C

4.8 C

8.6 C

0 W/m

0.00 mm

23:05

8.7 C

999.6 hpa

74 %

25.7 km/h aus 114

41.8 km/h aus SSE

4.3 C

4.4 C

4.6 C

8.6 C

0 W/m

0.00 mm

23:10

8.8 C

999.6 hpa

73 %

29.0 km/h aus 115

38.6 km/h aus SSE

4.2 C

4.2 C

4.4 C

8.6 C

0 W/m

0.00 mm

23:15

8.8 C

999.3 hpa

73 %

27.4 km/h aus 114

40.2 km/h aus SSE

4.2 C

4.3 C

4.5 C

8.6 C

0 W/m

0.00 mm

23:20

8.8 C

999.3 hpa

73 %

27.4 km/h aus 111

41.8 km/h aus S

4.2 C

4.3 C

4.5 C

8.6 C

0 W/m

0.00 mm

23:25

8.8 C

999.3 hpa

73 %

25.7 km/h aus 116

43.5 km/h aus SSE

4.3 C

4.5 C

4.7 C

8.6 C

0 W/m

0.00 mm

23:30

8.8 C

999.1 hpa

73 %

30.6 km/h aus 114

46.7 km/h aus SSE

4.2 C

4.0 C

4.2 C

8.6 C

0 W/m

0.00 mm

23:35

8.8 C

999.1 hpa

73 %

29.0 km/h aus 112

45.1 km/h aus SE

4.3 C

4.2 C

4.4 C

8.6 C

0 W/m

0.00 mm

23:40

8.8 C

999.1 hpa

73 %

24.1 km/h aus 115

33.8 km/h aus S

4.3 C

4.7 C

4.9 C

8.6 C

0 W/m

0.00 mm

23:45

8.8 C

999.0 hpa

73 %

25.7 km/h aus 112

37.0 km/h aus S

4.3 C

4.5 C

4.7 C

8.6 C

0 W/m

0.00 mm

23:50

8.8 C

999.0 hpa

73 %

27.4 km/h aus 115

40.2 km/h aus S

4.3 C

4.3 C

4.6 C

8.6 C

0 W/m

0.00 mm

23:55

8.8 C

999.0 hpa

73 %

27.4 km/h aus 115

38.6 km/h aus SSE

4.3 C

4.3 C

4.6 C

8.6 C

0 W/m

0.00 mm